Rothschild, WI

5:47 PM CST on February 08, 2016 (GMT -0600)
Wausau Downtown

Weather History for KAUW - April, 2013

Change the Weather History Date:

Sunday, April 14, 2013

  Actual Average Record
Temperature  
Mean Temperature 28 °F 44 °F  
Max Temperature 35 °F 54 °F 84 °F (2003)
Min Temperature 21 °F 33 °F 14 °F (1928)
Degree Days  
Heating Degree Days 37 22  
Month to date heating degree days 452 345  
Since 1 July heating degree days 7528 7566  
Cooling Degree Days 0 0  
Month to date cooling degree days 0 0  
Year to date cooling degree days 0 0  
Moisture  
Dew Point 26 °F    
Average Humidity 80    
Maximum Humidity 96    
Minimum Humidity 63    
Precipitation  
Precipitation 0.50 in 0.09 in 0.94 in (1909)
Month to date precipitation 2.33 1.15  
Year to date precipitation 7.66 4.85  
Snow  
Snow 2.20 in 0.20 in 9.00 in (1909)
Month to date snowfall 6.7 2.4  
Since 1 July snowfall 75.4 57.7  
Snow Depth 3.00 in    
Sea Level Pressure  
Sea Level Pressure 29.85 in    
Wind  
Wind Speed 10 mph (East)    
Max Wind Speed 26 mph    
Max Gust Speed 36 mph    
Visibility 7 miles    
Events Fog , Rain , Snow    
T = Trace of Precipitation, MM = Missing Value Source: NWS Daily Summary

Daily Weather History Graph

Daily Weather History Graph

Search for Another Location

Airport or City:

Trip Planner

Search our weather history database for the weather conditions in past years. The results will help you decide how hot, cold, wet, or windy it might be!

Date:

Astronomy

Apr. 14, 2013 Rise Set
Actual Time 6:15 AM CDT 7:42 PM CDT
Civil Twilight 5:44 AM CDT 8:13 PM CDT
Nautical Twilight 5:07 AM CDT 8:50 PM CDT
Astronomical Twilight 4:28 AM CDT 9:30 PM CDT
Moon 8:44 AM CDT (4/14) No Moon Set
Length of Visible Light 14h 28m
Length of Day
13h 27m
Waxing Crescent, 17% of the Moon is Illuminated
Apr 14
Waxing Crescent
Apr 18
First Quarter
Apr 25
Full
May 2
Last Quarter
May 9
New

Hourly Weather History & Observations

Time (CDT) Temp. Windchill Dew Point Humidity Pressure Visibility Wind Dir Wind Speed Gust Speed Precip Events Conditions
12:54 AM 26.1 °F 20.5 °F 19.9 °F 78% 30.01 in 10.0 mi NW 4.6 mph - N/A   Clear
1:54 AM 25.0 °F 20.7 °F 19.9 °F 81% 30.02 in 10.0 mi NNW 3.5 mph - N/A   Clear
2:54 AM 24.1 °F - 19.9 °F 84% 30.00 in 10.0 mi Calm Calm - N/A   Clear
3:54 AM 23.0 °F - 19.9 °F 88% 29.99 in 10.0 mi Calm Calm - N/A   Clear
4:54 AM 21.9 °F - 19.0 °F 89% 30.01 in 10.0 mi Calm Calm - N/A   Clear
5:54 AM 21.0 °F - 18.0 °F 88% 30.02 in 10.0 mi Calm Calm - N/A   Partly Cloudy
7:54 AM 27.0 °F 19.5 °F 21.0 °F 78% 30.01 in 10.0 mi East 6.9 mph - N/A   Mostly Cloudy
8:54 AM 28.9 °F 21.1 °F 21.0 °F 72% 29.99 in 10.0 mi East 8.1 mph - N/A   Overcast
9:54 AM 32.0 °F 23.6 °F 21.0 °F 64% 29.96 in 10.0 mi East 10.4 mph - N/A   Scattered Clouds
10:54 AM 32.0 °F 23.0 °F 21.0 °F 64% 29.96 in 10.0 mi East 11.5 mph - N/A   Overcast
11:28 AM 32.0 °F 21.6 °F 21.2 °F 64% 29.93 in 1.8 mi ESE 15.0 mph 23.0 mph 0.00 in Snow Light Snow
11:52 AM 28.4 °F 18.5 °F 26.6 °F 93% 29.93 in 0.2 mi ESE 11.5 mph - 0.01 in Fog , Snow Snow
11:54 AM 28.9 °F 19.2 °F 26.1 °F 89% 29.99 in 0.2 mi ESE 11.5 mph - 0.01 in Fog , Snow Snow
12:06 PM 28.4 °F 19.1 °F 26.6 °F 93% 29.93 in 0.2 mi ESE 10.4 mph - 0.01 in Fog , Snow Snow
12:54 PM 28.9 °F 20.4 °F 27.0 °F 92% 29.97 in 0.2 mi ESE 9.2 mph 18.4 mph 0.04 in Fog , Snow Snow
1:54 PM 28.9 °F 17.3 °F 27.0 °F 92% 29.93 in 0.5 mi East 16.1 mph 25.3 mph 0.04 in Fog , Snow Snow
2:04 PM 28.4 °F 17.5 °F 26.6 °F 93% 29.86 in 0.5 mi East 13.8 mph 24.2 mph 0.02 in Fog , Snow Snow
2:18 PM 30.2 °F 19.3 °F 26.6 °F 86% 29.85 in 2.5 mi East 15.0 mph 21.9 mph 0.03 in Snow Light Snow
2:25 PM 30.2 °F 18.9 °F 26.6 °F 86% 29.84 in 4.0 mi East 16.1 mph 23.0 mph 0.04 in   Overcast
2:35 PM 30.2 °F 19.3 °F 26.6 °F 86% 29.83 in 4.0 mi East 15.0 mph 24.2 mph 0.06 in   Overcast
2:44 PM 30.2 °F 17.8 °F 26.6 °F 86% 29.82 in 4.0 mi East 19.6 mph 28.8 mph 0.08 in Rain Light Freezing Rain
2:54 PM 30.9 °F 20.7 °F 27.0 °F 85% 29.87 in 3.0 mi East 13.8 mph 24.2 mph 0.10 in Rain Light Freezing Rain
3:15 PM 30.2 °F 18.9 °F 28.4 °F 93% 29.80 in 4.0 mi East 16.1 mph 28.8 mph 0.03 in Rain Light Freezing Rain
3:54 PM 30.9 °F 19.1 °F 28.0 °F 89% 29.84 in 9.0 mi East 18.4 mph 32.2 mph 0.05 in   Overcast
4:41 PM 32.0 °F 20.5 °F 28.4 °F 87% 29.78 in 5.0 mi East 18.4 mph 25.3 mph 0.01 in Rain Light Freezing Rain
4:50 PM 32.0 °F 20.8 °F 28.4 °F 87% 29.77 in 7.0 mi East 17.3 mph 27.6 mph 0.01 in Rain Light Freezing Rain
4:54 PM 32.0 °F 22.5 °F 28.0 °F 85% 29.83 in 9.0 mi ESE 12.7 mph 25.3 mph 0.01 in Rain Light Freezing Rain
5:12 PM 32.0 °F 21.2 °F 28.4 °F 87% 29.77 in 10.0 mi East 16.1 mph 25.3 mph 0.01 in   Overcast
5:54 PM 32.0 °F 22.1 °F 28.9 °F 88% 29.82 in 9.0 mi East 13.8 mph 25.3 mph 0.01 in   Overcast
6:07 PM 32.0 °F 21.2 °F 28.4 °F 87% 29.75 in 5.0 mi East 16.1 mph 24.2 mph 0.00 in Rain Light Freezing Rain
6:54 PM 32.0 °F 18.9 °F 28.9 °F 88% 29.77 in 10.0 mi East 24.2 mph 34.5 mph 0.01 in   Overcast
7:54 PM 33.1 °F 21.5 °F 30.0 °F 89% 29.75 in 10.0 mi ESE 19.6 mph 33.4 mph 0.00 in Rain Light Rain
8:04 PM 33.8 °F 22.2 °F 28.4 °F 81% 29.69 in 10.0 mi East 20.7 mph 26.5 mph 0.00 in Rain Light Freezing Rain
8:28 PM 33.8 °F 22.8 °F 28.4 °F 81% 29.68 in 10.0 mi East 18.4 mph 29.9 mph 0.01 in Rain Light Freezing Rain
8:44 PM 33.8 °F 22.2 °F 28.4 °F 81% 29.68 in 10.0 mi ESE 20.7 mph 29.9 mph 0.01 in   Overcast
8:54 PM 33.1 °F 22.2 °F 28.9 °F 85% 29.73 in 10.0 mi ESE 17.3 mph 32.2 mph 0.01 in Rain Light Rain
9:54 PM 33.1 °F 21.9 °F 28.9 °F 85% 29.69 in 10.0 mi East 18.4 mph 28.8 mph 0.00 in   Overcast
10:08 PM 33.8 °F 22.8 °F 28.4 °F 81% 29.64 in 10.0 mi East 18.4 mph 33.4 mph N/A   Overcast
10:54 PM 34.0 °F 23.8 °F 30.0 °F 85% 29.68 in 10.0 mi ESE 16.1 mph 23.0 mph 0.00 in Rain Light Rain
11:19 PM 33.8 °F 26.4 °F 30.2 °F 87% 29.66 in 8.0 mi SE 9.2 mph 16.1 mph 0.01 in Rain Light Rain
11:54 PM 34.0 °F - 32.0 °F 92% 29.72 in 4.0 mi Calm Calm - 0.10 in Rain Rain